Location: ??????
(55.2000°N, 38.3000°E)
Time: 08:30:56
(UTC+00:00)

CZ-2D R/B - Pass Details

Date: 15 November 2025
Orbit: 788 x 842 km, 98.9° (Epoch: 14 December)

Event Time Altitude Azimuth Distance (km) Brightness Sun altitude
Rises 00:33:21 0° 16° (NNE) 3,328 5.7 -37.2°
Reaches altitude 10° 00:35:42 10° 15° (NNE) 2,387 4.9 -36.9°
Enters shadow 00:36:52 17° 14° (NNE) 1,933 4.3 -36.8°
